Year,Month,Day,Hour,Minute,Value (Times are PST for temperature in C)
2008,04,13,00,00,15.40
2008,04,13,00,01,15.40
2008,04,13,00,02,15.40
2008,04,13,00,03,15.40
2008,04,13,00,04,15.40
2008,04,13,00,05,15.40
2008,04,13,00,06,15.30
2008,04,13,00,07,15.30
2008,04,13,00,08,15.30
2008,04,13,00,09,15.30
2008,04,13,00,10,15.20
2008,04,13,00,11,15.20
2008,04,13,00,12,15.10
2008,04,13,00,13,15.10
2008,04,13,00,14,15.00
2008,04,13,00,15,15.00
2008,04,13,00,16,15.00
2008,04,13,00,17,14.90
2008,04,13,00,18,14.90
2008,04,13,00,19,14.90
2008,04,13,00,20,14.90
2008,04,13,00,21,14.90
2008,04,13,00,22,14.80
2008,04,13,00,23,14.80
2008,04,13,00,24,14.80
2008,04,13,00,25,14.80
2008,04,13,00,26,14.80
2008,04,13,00,27,14.80
2008,04,13,00,28,14.80
2008,04,13,00,29,14.70
2008,04,13,00,30,14.70
2008,04,13,00,31,14.70
2008,04,13,00,32,14.60
2008,04,13,00,33,14.60
2008,04,13,00,34,14.60
2008,04,13,00,35,14.60
2008,04,13,00,36,14.50
2008,04,13,00,37,14.50
2008,04,13,00,38,14.40
2008,04,13,00,39,14.40
2008,04,13,00,40,14.30
2008,04,13,00,41,14.30
2008,04,13,00,42,14.20
2008,04,13,00,43,14.20
2008,04,13,00,44,14.10
2008,04,13,00,45,14.10
2008,04,13,00,46,14.00
2008,04,13,00,47,14.00
2008,04,13,00,48,13.90
2008,04,13,00,49,13.90
2008,04,13,00,50,13.80
2008,04,13,00,51,13.80
2008,04,13,00,52,13.70
2008,04,13,00,53,13.70
2008,04,13,00,54,13.70
2008,04,13,00,55,13.70
2008,04,13,00,56,13.70
2008,04,13,00,57,13.60
2008,04,13,00,58,13.60
2008,04,13,00,59,13.60
2008,04,13,01,00,13.60
2008,04,13,01,01,13.50
2008,04,13,01,02,13.50
2008,04,13,01,03,13.50
2008,04,13,01,04,13.50
2008,04,13,01,05,13.50
2008,04,13,01,06,13.50
2008,04,13,01,07,13.50
2008,04,13,01,08,13.50
2008,04,13,01,09,13.50
2008,04,13,01,10,13.50
2008,04,13,01,11,13.50
2008,04,13,01,12,13.50
2008,04,13,01,13,13.50
2008,04,13,01,14,13.50
2008,04,13,01,15,13.50
2008,04,13,01,16,13.50
2008,04,13,01,17,13.50
2008,04,13,01,18,13.50
2008,04,13,01,19,13.40
2008,04,13,01,20,13.40
2008,04,13,01,21,13.40
2008,04,13,01,22,13.40
2008,04,13,01,23,13.40
2008,04,13,01,24,13.40
2008,04,13,01,25,13.40
2008,04,13,01,26,13.30
2008,04,13,01,27,13.30
2008,04,13,01,28,13.30
2008,04,13,01,29,13.30
2008,04,13,01,30,13.30
2008,04,13,01,31,13.30
2008,04,13,01,32,13.30
2008,04,13,01,33,13.30
2008,04,13,01,34,13.30
2008,04,13,01,35,13.20
2008,04,13,01,36,13.20
2008,04,13,01,37,13.20
2008,04,13,01,38,13.10
2008,04,13,01,39,13.10
2008,04,13,01,40,13.10
2008,04,13,01,41,13.00
2008,04,13,01,42,13.00
2008,04,13,01,43,12.90
2008,04,13,01,44,12.90
2008,04,13,01,45,12.90
2008,04,13,01,46,12.80
2008,04,13,01,47,12.70
2008,04,13,01,48,12.50
2008,04,13,01,49,12.40
2008,04,13,01,50,12.20
2008,04,13,01,51,12.20
2008,04,13,01,52,12.10
2008,04,13,01,53,12.10
2008,04,13,01,54,12.10
2008,04,13,01,55,12.00
2008,04,13,01,56,12.00
2008,04,13,01,57,12.00
2008,04,13,01,58,11.90
2008,04,13,01,59,11.90
2008,04,13,02,00,11.90
2008,04,13,02,01,11.90
2008,04,13,02,02,11.90
2008,04,13,02,03,12.00
2008,04,13,02,04,12.10
2008,04,13,02,05,12.10
2008,04,13,02,06,12.20
2008,04,13,02,07,12.20
2008,04,13,02,08,12.30
2008,04,13,02,09,12.30
2008,04,13,02,10,12.40
2008,04,13,02,11,12.50
2008,04,13,02,12,12.50
2008,04,13,02,13,12.50
2008,04,13,02,14,12.50
2008,04,13,02,15,12.50
2008,04,13,02,16,12.40
2008,04,13,02,17,12.40
2008,04,13,02,18,12.40
2008,04,13,02,19,12.30
2008,04,13,02,20,12.30
2008,04,13,02,21,12.20
2008,04,13,02,22,12.10
2008,04,13,02,23,12.00
2008,04,13,02,24,11.90
2008,04,13,02,25,11.80
2008,04,13,02,26,11.70
2008,04,13,02,27,11.70
2008,04,13,02,28,11.70
2008,04,13,02,29,11.70
2008,04,13,02,30,11.70
2008,04,13,02,31,11.70
2008,04,13,02,32,11.70
2008,04,13,02,33,11.70
2008,04,13,02,34,11.60
2008,04,13,02,35,11.60
2008,04,13,02,36,11.60
2008,04,13,02,37,11.50
2008,04,13,02,38,11.40
2008,04,13,02,39,11.40
2008,04,13,02,40,11.30
2008,04,13,02,41,11.30
2008,04,13,02,42,11.20
2008,04,13,02,43,11.20
2008,04,13,02,44,11.20
2008,04,13,02,45,11.20
2008,04,13,02,46,11.20
2008,04,13,02,47,11.30
2008,04,13,02,48,11.30
2008,04,13,02,49,11.20
2008,04,13,02,50,11.10
2008,04,13,02,51,11.00
2008,04,13,02,52,10.80
2008,04,13,02,53,10.70
2008,04,13,02,54,10.60
2008,04,13,02,55,10.60
2008,04,13,02,56,10.60
2008,04,13,02,57,10.60
2008,04,13,02,58,10.60
2008,04,13,02,59,10.60
2008,04,13,03,00,10.60
2008,04,13,03,01,10.60
2008,04,13,03,02,10.60
2008,04,13,03,03,10.60
2008,04,13,03,04,10.60
2008,04,13,03,05,10.60
2008,04,13,03,06,10.70
2008,04,13,03,07,10.70
2008,04,13,03,08,10.70
2008,04,13,03,09,10.70
2008,04,13,03,10,10.70
2008,04,13,03,11,10.80
2008,04,13,03,12,10.80
2008,04,13,03,13,10.90
2008,04,13,03,14,10.90
2008,04,13,03,15,10.90
2008,04,13,03,16,10.90
2008,04,13,03,17,10.90
2008,04,13,03,18,10.90
2008,04,13,03,19,10.90
2008,04,13,03,20,10.90
2008,04,13,03,21,10.90
2008,04,13,03,22,10.90
2008,04,13,03,23,11.00
2008,04,13,03,24,11.10
2008,04,13,03,25,11.10
2008,04,13,03,26,11.10
2008,04,13,03,27,11.10
2008,04,13,03,28,11.10
2008,04,13,03,29,11.20
2008,04,13,03,30,11.20
2008,04,13,03,31,11.20
2008,04,13,03,32,11.30
2008,04,13,03,33,11.30
2008,04,13,03,34,11.20
2008,04,13,03,35,11.20
2008,04,13,03,36,11.20
2008,04,13,03,37,11.20
2008,04,13,03,38,11.20
2008,04,13,03,39,11.10
2008,04,13,03,40,11.10
2008,04,13,03,41,11.10
2008,04,13,03,42,11.10
2008,04,13,03,43,11.10
2008,04,13,03,44,11.10
2008,04,13,03,45,11.10
2008,04,13,03,46,11.10
2008,04,13,03,47,11.10
2008,04,13,03,48,11.10
2008,04,13,03,49,11.10
2008,04,13,03,50,11.10
2008,04,13,03,51,11.10
2008,04,13,03,52,11.10
2008,04,13,03,53,11.10
2008,04,13,03,54,11.10
2008,04,13,03,55,11.10
2008,04,13,03,56,11.10
2008,04,13,03,57,11.10
2008,04,13,03,58,10.90
2008,04,13,03,59,10.90
2008,04,13,04,00,10.90
2008,04,13,04,01,10.90
2008,04,13,04,02,10.90
2008,04,13,04,03,10.90
2008,04,13,04,04,10.80
2008,04,13,04,05,10.80
2008,04,13,04,06,10.80
2008,04,13,04,07,10.80
2008,04,13,04,08,10.70
2008,04,13,04,09,10.70
2008,04,13,04,10,10.70
2008,04,13,04,11,10.70
2008,04,13,04,12,10.60
2008,04,13,04,13,10.60
2008,04,13,04,14,10.60
2008,04,13,04,15,10.60
2008,04,13,04,16,10.60
2008,04,13,04,17,10.60
2008,04,13,04,18,10.60
2008,04,13,04,19,10.60
2008,04,13,04,20,10.60
2008,04,13,04,21,10.50
2008,04,13,04,22,10.40
2008,04,13,04,23,10.40
2008,04,13,04,24,10.40
2008,04,13,04,25,10.40
2008,04,13,04,26,10.40
2008,04,13,04,27,10.40
2008,04,13,04,28,10.40
2008,04,13,04,29,10.40
2008,04,13,04,30,10.30
2008,04,13,04,31,10.30
2008,04,13,04,32,10.30
2008,04,13,04,33,10.20
2008,04,13,04,34,10.20
2008,04,13,04,35,10.20
2008,04,13,04,36,10.20
2008,04,13,04,37,10.20
2008,04,13,04,38,10.20
2008,04,13,04,39,10.20
2008,04,13,04,40,10.20
2008,04,13,04,41,10.20
2008,04,13,04,42,10.20
2008,04,13,04,43,10.20
2008,04,13,04,44,10.20
2008,04,13,04,45,10.30
2008,04,13,04,46,10.30
2008,04,13,04,47,10.30
2008,04,13,04,48,10.30
2008,04,13,04,49,10.30
2008,04,13,04,50,10.30
2008,04,13,04,51,10.30
2008,04,13,04,52,10.30
2008,04,13,04,53,10.30
2008,04,13,04,54,10.30
2008,04,13,04,55,10.30
2008,04,13,04,56,10.30
2008,04,13,04,57,10.30
2008,04,13,04,58,10.30
2008,04,13,04,59,10.30
2008,04,13,05,00,10.30
2008,04,13,05,01,10.30
2008,04,13,05,02,10.30
2008,04,13,05,03,10.30
2008,04,13,05,04,10.30
2008,04,13,05,05,10.30
2008,04,13,05,06,10.30
2008,04,13,05,07,10.30
2008,04,13,05,08,10.30
2008,04,13,05,09,10.30
2008,04,13,05,10,10.20
2008,04,13,05,11,10.20
2008,04,13,05,12,10.20
2008,04,13,05,13,10.20
2008,04,13,05,14,10.20
2008,04,13,05,15,10.20
2008,04,13,05,16,10.20
2008,04,13,05,17,10.10
2008,04,13,05,18,10.10
2008,04,13,05,19,10.10
2008,04,13,05,20,10.10
2008,04,13,05,21,10.10
2008,04,13,05,22,10.10
2008,04,13,05,23,10.10
2008,04,13,05,24,10.10
2008,04,13,05,25,10.10
2008,04,13,05,26,10.10
2008,04,13,05,27,10.10
2008,04,13,05,28,10.10
2008,04,13,05,29,10.10
2008,04,13,05,30,10.20
2008,04,13,05,31,10.20
2008,04,13,05,32,10.20
2008,04,13,05,33,10.20
2008,04,13,05,34,10.20
2008,04,13,05,35,10.20
2008,04,13,05,36,10.20
2008,04,13,05,37,10.20
2008,04,13,05,38,10.20
2008,04,13,05,39,10.20
2008,04,13,05,40,10.20
2008,04,13,05,41,10.20
2008,04,13,05,42,10.20
2008,04,13,05,43,10.20
2008,04,13,05,44,10.20
2008,04,13,05,45,10.20
2008,04,13,05,46,10.20
2008,04,13,05,47,10.10
2008,04,13,05,48,10.10
2008,04,13,05,49,10.10
2008,04,13,05,50,10.10
2008,04,13,05,51,10.10
2008,04,13,05,52,10.10
2008,04,13,05,53,10.10
2008,04,13,05,54,10.10
2008,04,13,05,55,10.10
2008,04,13,05,56,10.10
2008,04,13,05,57,10.10
2008,04,13,05,58,10.10
2008,04,13,05,59,10.10
2008,04,13,06,00,10.10
2008,04,13,06,01,10.10
2008,04,13,06,02,10.10
2008,04,13,06,03,10.10
2008,04,13,06,04,10.10
2008,04,13,06,05,10.10
2008,04,13,06,06,10.10
2008,04,13,06,07,10.10
2008,04,13,06,08,10.20
2008,04,13,06,09,10.20
2008,04,13,06,10,10.20
2008,04,13,06,11,10.20
2008,04,13,06,12,10.20
2008,04,13,06,13,10.20
2008,04,13,06,14,10.20
2008,04,13,06,15,10.20
2008,04,13,06,16,10.30
2008,04,13,06,17,10.30
2008,04,13,06,18,10.30
2008,04,13,06,19,10.30
2008,04,13,06,20,10.30
2008,04,13,06,21,10.30
2008,04,13,06,22,10.20
2008,04,13,06,23,10.20
2008,04,13,06,24,10.20
2008,04,13,06,25,10.20
2008,04,13,06,26,10.20
2008,04,13,06,27,10.10
2008,04,13,06,28,10.10
2008,04,13,06,29,10.10
2008,04,13,06,30,10.10
2008,04,13,06,31,10.10
2008,04,13,06,32,10.10
2008,04,13,06,33,10.10
2008,04,13,06,34,10.00
2008,04,13,06,35,9.90
2008,04,13,06,36,9.90
2008,04,13,06,37,9.90
2008,04,13,06,38,9.90
2008,04,13,06,39,9.90
2008,04,13,06,40,9.90
2008,04,13,06,41,9.90
2008,04,13,06,42,9.90
2008,04,13,06,43,9.90
2008,04,13,06,44,9.90
2008,04,13,06,45,9.90
2008,04,13,06,46,9.90
2008,04,13,06,47,9.90
2008,04,13,06,48,9.90
2008,04,13,06,49,9.90
2008,04,13,06,50,9.90
2008,04,13,06,51,9.80
2008,04,13,06,52,9.80
2008,04,13,06,53,9.80
2008,04,13,06,54,9.80
2008,04,13,06,55,9.80
2008,04,13,06,56,9.80
2008,04,13,06,57,9.70
2008,04,13,06,58,9.70
2008,04,13,06,59,9.70
2008,04,13,07,00,9.70
2008,04,13,07,01,9.70
2008,04,13,07,02,9.70
2008,04,13,07,03,9.60
2008,04,13,07,04,9.60
2008,04,13,07,05,9.60
2008,04,13,07,06,9.60
2008,04,13,07,07,9.50
2008,04,13,07,08,9.50
2008,04,13,07,09,9.50
2008,04,13,07,10,9.40
2008,04,13,07,11,9.40
2008,04,13,07,12,9.40
2008,04,13,07,13,9.30
2008,04,13,07,14,9.30
2008,04,13,07,15,9.30
2008,04,13,07,16,9.30
2008,04,13,07,17,9.20
2008,04,13,07,18,9.20
2008,04,13,07,19,9.20
2008,04,13,07,20,9.10
2008,04,13,07,21,9.10
2008,04,13,07,22,9.00
2008,04,13,07,23,9.00
2008,04,13,07,24,8.90
2008,04,13,07,25,8.90
2008,04,13,07,26,8.80
2008,04,13,07,27,8.80
2008,04,13,07,28,8.80
2008,04,13,07,29,8.70
2008,04,13,07,30,8.70
2008,04,13,07,31,8.70
2008,04,13,07,32,8.70
2008,04,13,07,33,8.70
2008,04,13,07,34,8.70
2008,04,13,07,35,8.70
2008,04,13,07,36,8.60
2008,04,13,07,37,8.60
2008,04,13,07,38,8.60
2008,04,13,07,39,8.60
2008,04,13,07,40,8.60
2008,04,13,07,41,8.60
2008,04,13,07,42,8.50
2008,04,13,07,43,8.50
2008,04,13,07,44,8.50
2008,04,13,07,45,8.50
2008,04,13,07,46,8.50
2008,04,13,07,47,8.40
2008,04,13,07,48,8.40
2008,04,13,07,49,8.40
2008,04,13,07,50,8.40
2008,04,13,07,51,8.40
2008,04,13,07,52,8.40
2008,04,13,07,53,8.40
2008,04,13,07,54,8.40
2008,04,13,07,55,8.40
2008,04,13,07,56,8.40
2008,04,13,07,57,8.40
2008,04,13,07,58,8.40
2008,04,13,07,59,8.40
2008,04,13,08,00,8.40
2008,04,13,08,01,8.40
2008,04,13,08,02,8.30
2008,04,13,08,03,8.40
2008,04,13,08,04,8.40
2008,04,13,08,05,8.40
2008,04,13,08,06,8.40
2008,04,13,08,07,8.40
2008,04,13,08,08,8.40
2008,04,13,08,09,8.40
2008,04,13,08,10,8.40
2008,04,13,08,11,8.40
2008,04,13,08,12,8.40
2008,04,13,08,13,8.40
2008,04,13,08,14,8.40
2008,04,13,08,15,8.40
2008,04,13,08,16,8.40
2008,04,13,08,17,8.40
2008,04,13,08,18,8.40
2008,04,13,08,19,8.40
2008,04,13,08,20,8.40
2008,04,13,08,21,8.40
2008,04,13,08,22,8.40
2008,04,13,08,23,8.40
2008,04,13,08,24,8.40
2008,04,13,08,25,8.40
2008,04,13,08,26,8.40
2008,04,13,08,27,8.40
2008,04,13,08,28,8.50
2008,04,13,08,29,8.40
2008,04,13,08,30,8.50
2008,04,13,08,31,8.50
2008,04,13,08,32,8.50
2008,04,13,08,33,8.50
2008,04,13,08,34,8.40
2008,04,13,08,35,8.40
2008,04,13,08,36,8.40
2008,04,13,08,37,8.40
2008,04,13,08,38,8.40
2008,04,13,08,39,8.40
2008,04,13,08,40,8.40
2008,04,13,08,41,8.30
2008,04,13,08,42,8.30
2008,04,13,08,43,8.30
2008,04,13,08,44,8.30
2008,04,13,08,45,8.30
2008,04,13,08,46,8.30
2008,04,13,08,47,8.30
2008,04,13,08,48,8.30
2008,04,13,08,49,8.30
2008,04,13,08,50,8.30
2008,04,13,08,51,8.30
2008,04,13,08,52,8.30
2008,04,13,08,53,8.30
2008,04,13,08,54,8.30
2008,04,13,08,55,8.30
2008,04,13,08,56,8.30
2008,04,13,08,57,8.30
2008,04,13,08,58,8.30
2008,04,13,08,59,8.30
2008,04,13,09,00,8.30
2008,04,13,09,01,8.30
2008,04,13,09,02,8.40
2008,04,13,09,03,8.30
2008,04,13,09,04,8.40
2008,04,13,09,05,8.40
2008,04,13,09,06,8.40
2008,04,13,09,07,8.40
2008,04,13,09,08,8.40
2008,04,13,09,09,8.40
2008,04,13,09,10,8.40
2008,04,13,09,11,8.40
2008,04,13,09,12,8.40
2008,04,13,09,13,8.50
2008,04,13,09,14,8.50
2008,04,13,09,15,8.50
2008,04,13,09,16,8.60
2008,04,13,09,17,8.60
2008,04,13,09,18,8.60
2008,04,13,09,19,8.60
2008,04,13,09,20,8.70
2008,04,13,09,21,8.70
2008,04,13,09,22,8.70
2008,04,13,09,23,8.70
2008,04,13,09,24,8.70
2008,04,13,09,25,8.70
2008,04,13,09,26,8.70
2008,04,13,09,27,8.70
2008,04,13,09,28,8.70
2008,04,13,09,29,8.70
2008,04,13,09,30,8.60
2008,04,13,09,31,8.60
2008,04,13,09,32,8.60
2008,04,13,09,33,8.60
2008,04,13,09,34,8.60
2008,04,13,09,35,8.60
2008,04,13,09,36,8.60
2008,04,13,09,37,8.60
2008,04,13,09,38,8.60
2008,04,13,09,39,8.60
2008,04,13,09,40,8.60
2008,04,13,09,41,8.60
2008,04,13,09,42,8.70
2008,04,13,09,43,8.70
2008,04,13,09,44,8.70
2008,04,13,09,45,8.70
2008,04,13,09,46,8.70
2008,04,13,09,47,8.70
2008,04,13,09,48,8.80
2008,04,13,09,49,8.80
2008,04,13,09,50,8.80
2008,04,13,09,51,8.90
2008,04,13,09,52,8.90
2008,04,13,09,53,8.90
2008,04,13,09,54,8.90
2008,04,13,09,55,9.00
2008,04,13,09,56,9.00
2008,04,13,09,57,9.00
2008,04,13,09,58,9.10
2008,04,13,09,59,9.10
2008,04,13,10,00,9.20
2008,04,13,10,01,9.20
2008,04,13,10,02,9.20
2008,04,13,10,03,9.20
2008,04,13,10,04,9.20
2008,04,13,10,05,9.20
2008,04,13,10,06,9.30
2008,04,13,10,07,9.30
2008,04,13,10,08,9.30
2008,04,13,10,09,9.40
2008,04,13,10,10,9.40
2008,04,13,10,11,9.40
2008,04,13,10,12,9.50
2008,04,13,10,13,9.50
2008,04,13,10,14,9.50
2008,04,13,10,15,9.50
2008,04,13,10,16,9.60
2008,04,13,10,17,9.60
2008,04,13,10,18,9.60
2008,04,13,10,19,9.70
2008,04,13,10,20,9.70
2008,04,13,10,21,9.70
2008,04,13,10,22,9.80
2008,04,13,10,23,9.80
2008,04,13,10,24,9.90
2008,04,13,10,25,9.90
2008,04,13,10,26,10.00
2008,04,13,10,27,10.10
2008,04,13,10,28,10.10
2008,04,13,10,29,10.10
2008,04,13,10,30,10.10
2008,04,13,10,31,10.10
2008,04,13,10,32,10.10
2008,04,13,10,33,10.20
2008,04,13,10,34,10.20
2008,04,13,10,35,10.20
2008,04,13,10,36,10.30
2008,04,13,10,37,10.30
2008,04,13,10,38,10.30
2008,04,13,10,39,10.30
2008,04,13,10,40,10.30
2008,04,13,10,41,10.40
2008,04,13,10,42,10.40
2008,04,13,10,43,10.40
2008,04,13,10,44,10.40
2008,04,13,10,45,10.40
2008,04,13,10,46,10.40
2008,04,13,10,47,10.60
2008,04,13,10,48,10.60
2008,04,13,10,49,10.60
2008,04,13,10,50,10.70
2008,04,13,10,51,10.60
2008,04,13,10,52,10.60
2008,04,13,10,53,10.60
2008,04,13,10,54,10.60
2008,04,13,10,55,10.60
2008,04,13,10,56,10.60
2008,04,13,10,57,10.60
2008,04,13,10,58,10.60
2008,04,13,10,59,10.50
2008,04,13,11,00,10.40
2008,04,13,11,01,10.40
2008,04,13,11,02,10.40
2008,04,13,11,03,10.40
2008,04,13,11,04,10.40
2008,04,13,11,05,10.50
2008,04,13,11,06,10.60
2008,04,13,11,07,10.60
2008,04,13,11,08,10.70
2008,04,13,11,09,10.70
2008,04,13,11,10,10.80
2008,04,13,11,11,10.90
2008,04,13,11,12,11.00
2008,04,13,11,13,11.10
2008,04,13,11,14,11.10
2008,04,13,11,15,11.10
2008,04,13,11,16,11.20
2008,04,13,11,17,11.20
2008,04,13,11,18,11.20
2008,04,13,11,19,11.30
2008,04,13,11,20,11.30
2008,04,13,11,21,11.20
2008,04,13,11,22,11.10
2008,04,13,11,23,11.00
2008,04,13,11,24,10.90
2008,04,13,11,25,10.90
2008,04,13,11,26,10.90
2008,04,13,11,27,10.90
2008,04,13,11,28,10.90
2008,04,13,11,29,10.90
2008,04,13,11,30,10.90
2008,04,13,11,31,11.10
2008,04,13,11,32,11.10
2008,04,13,11,33,11.10
2008,04,13,11,34,11.10
2008,04,13,11,35,11.10
2008,04,13,11,36,11.10
2008,04,13,11,37,11.10
2008,04,13,11,38,11.10
2008,04,13,11,39,11.10
2008,04,13,11,40,11.10
2008,04,13,11,41,11.10
2008,04,13,11,42,11.10
2008,04,13,11,43,11.10
2008,04,13,11,44,11.10
2008,04,13,11,45,11.10
2008,04,13,11,46,11.20
2008,04,13,11,47,11.20
2008,04,13,11,48,11.20
2008,04,13,11,49,11.20
2008,04,13,11,50,11.20
2008,04,13,11,51,11.30
2008,04,13,11,52,11.30
2008,04,13,11,53,11.20
2008,04,13,11,54,11.20
2008,04,13,11,55,11.20
2008,04,13,11,56,11.30
2008,04,13,11,57,11.30
2008,04,13,11,58,11.30
2008,04,13,11,59,11.30
2008,04,13,12,00,11.40
2008,04,13,12,01,11.40
2008,04,13,12,02,11.40
2008,04,13,12,03,11.40
2008,04,13,12,04,11.40
2008,04,13,12,05,11.40
2008,04,13,12,06,11.40
2008,04,13,12,07,11.40
2008,04,13,12,08,11.40
2008,04,13,12,09,11.50
2008,04,13,12,10,11.60
2008,04,13,12,11,11.70
2008,04,13,12,12,11.70
2008,04,13,12,13,11.80
2008,04,13,12,14,11.80
2008,04,13,12,15,11.80
2008,04,13,12,16,11.70
2008,04,13,12,17,11.80
2008,04,13,12,18,11.80
2008,04,13,12,19,11.80
2008,04,13,12,20,11.80
2008,04,13,12,21,11.80
2008,04,13,12,22,11.90
2008,04,13,12,23,12.10
2008,04,13,12,24,12.20
2008,04,13,12,25,12.30
2008,04,13,12,26,12.40
2008,04,13,12,27,12.50
2008,04,13,12,28,12.60
2008,04,13,12,29,12.70
2008,04,13,12,30,12.70
2008,04,13,12,31,12.80
2008,04,13,12,32,12.80
2008,04,13,12,33,12.80
2008,04,13,12,34,12.90
2008,04,13,12,35,12.90
2008,04,13,12,36,12.90
2008,04,13,12,37,12.90
2008,04,13,12,38,12.90
2008,04,13,12,39,12.90
2008,04,13,12,40,13.00
2008,04,13,12,41,13.00
2008,04,13,12,42,13.00
2008,04,13,12,43,13.00
2008,04,13,12,44,13.10
2008,04,13,12,45,13.10
2008,04,13,12,46,13.10
2008,04,13,12,47,13.10
2008,04,13,12,48,13.20
2008,04,13,12,49,13.10
2008,04,13,12,50,13.10
2008,04,13,12,51,13.00
2008,04,13,12,52,13.00
2008,04,13,12,53,13.10
2008,04,13,12,54,13.10
2008,04,13,12,55,13.30
2008,04,13,12,56,13.40
2008,04,13,12,57,13.50
2008,04,13,12,58,13.60
2008,04,13,12,59,13.70
2008,04,13,13,00,13.70
2008,04,13,13,01,13.80
2008,04,13,13,02,13.80
2008,04,13,13,03,13.80
2008,04,13,13,04,13.70
2008,04,13,13,05,13.70
2008,04,13,13,06,13.60
2008,04,13,13,07,13.50
2008,04,13,13,08,13.50
2008,04,13,13,09,13.50
2008,04,13,13,10,13.40
2008,04,13,13,11,13.40
2008,04,13,13,12,13.40
2008,04,13,13,13,13.40
2008,04,13,13,14,13.40
2008,04,13,13,15,13.40
2008,04,13,13,16,13.40
2008,04,13,13,17,13.40
2008,04,13,13,18,13.50
2008,04,13,13,19,13.50
2008,04,13,13,20,13.50
2008,04,13,13,21,13.60
2008,04,13,13,22,13.60
2008,04,13,13,23,13.60
2008,04,13,13,24,13.60
2008,04,13,13,25,13.70
2008,04,13,13,26,13.60
2008,04,13,13,27,13.50
2008,04,13,13,28,13.50
2008,04,13,13,29,13.40
2008,04,13,13,30,13.30
2008,04,13,13,31,13.30
2008,04,13,13,32,13.40
2008,04,13,13,33,13.40
2008,04,13,13,34,13.40
2008,04,13,13,35,13.40
2008,04,13,13,36,13.40
2008,04,13,13,37,13.30
2008,04,13,13,38,13.30
2008,04,13,13,39,13.20
2008,04,13,13,40,13.20
2008,04,13,13,41,13.30
2008,04,13,13,42,13.30
2008,04,13,13,43,13.30
2008,04,13,13,44,13.30
2008,04,13,13,45,13.30
2008,04,13,13,46,13.30
2008,04,13,13,47,13.30
2008,04,13,13,48,13.30
2008,04,13,13,49,13.30
2008,04,13,13,50,13.30
2008,04,13,13,51,13.40
2008,04,13,13,52,13.50
2008,04,13,13,53,13.50
2008,04,13,13,54,13.40
2008,04,13,13,55,13.40
2008,04,13,13,56,13.50
2008,04,13,13,57,13.50
2008,04,13,13,58,13.60
2008,04,13,13,59,13.60
2008,04,13,14,00,13.60
2008,04,13,14,01,13.50
2008,04,13,14,02,13.40
2008,04,13,14,03,13.30
2008,04,13,14,04,13.30
2008,04,13,14,05,13.40
2008,04,13,14,06,13.50
2008,04,13,14,07,13.50
2008,04,13,14,08,13.50
2008,04,13,14,09,13.50
2008,04,13,14,10,13.60
2008,04,13,14,11,13.60
2008,04,13,14,12,13.60
2008,04,13,14,13,13.60
2008,04,13,14,14,13.60
2008,04,13,14,15,13.70
2008,04,13,14,16,13.70
2008,04,13,14,17,13.70
2008,04,13,14,18,13.70
2008,04,13,14,19,13.60
2008,04,13,14,20,13.50
2008,04,13,14,21,13.30
2008,04,13,14,22,13.30
2008,04,13,14,23,13.30
2008,04,13,14,24,13.30
2008,04,13,14,25,13.30
2008,04,13,14,26,13.30
2008,04,13,14,27,13.30
2008,04,13,14,28,13.40
2008,04,13,14,29,13.40
2008,04,13,14,30,13.50
2008,04,13,14,31,13.60
2008,04,13,14,32,13.60
2008,04,13,14,33,13.70
2008,04,13,14,34,13.70
2008,04,13,14,35,13.70
2008,04,13,14,36,13.70
2008,04,13,14,37,13.70
2008,04,13,14,38,13.70
2008,04,13,14,39,13.70
2008,04,13,14,40,13.70
2008,04,13,14,41,13.80
2008,04,13,14,42,13.90
2008,04,13,14,43,13.90
2008,04,13,14,44,13.90
2008,04,13,14,45,14.00
2008,04,13,14,46,14.00
2008,04,13,14,47,13.90
2008,04,13,14,48,13.80
2008,04,13,14,49,13.70
2008,04,13,14,50,13.70
2008,04,13,14,51,13.70
2008,04,13,14,52,13.70
2008,04,13,14,53,13.60
2008,04,13,14,54,13.60
2008,04,13,14,55,13.60
2008,04,13,14,56,13.60
2008,04,13,14,57,13.60
2008,04,13,14,58,13.60
2008,04,13,14,59,13.60
2008,04,13,15,00,13.70
2008,04,13,15,01,13.70
2008,04,13,15,02,13.60
2008,04,13,15,03,13.50
2008,04,13,15,04,13.50
2008,04,13,15,05,13.50
2008,04,13,15,06,13.50
2008,04,13,15,07,13.50
2008,04,13,15,08,13.50
2008,04,13,15,09,13.50
2008,04,13,15,10,13.50
2008,04,13,15,11,13.40
2008,04,13,15,12,13.30
2008,04,13,15,13,13.30
2008,04,13,15,14,13.20
2008,04,13,15,15,13.20
2008,04,13,15,16,13.10
2008,04,13,15,17,13.20
2008,04,13,15,18,13.20
2008,04,13,15,19,13.20
2008,04,13,15,20,13.10
2008,04,13,15,21,13.10
2008,04,13,15,22,13.10
2008,04,13,15,23,13.20
2008,04,13,15,24,13.20
2008,04,13,15,25,13.20
2008,04,13,15,26,13.10
2008,04,13,15,27,13.10
2008,04,13,15,28,13.00
2008,04,13,15,29,13.00
2008,04,13,15,30,13.10
2008,04,13,15,31,13.20
2008,04,13,15,32,13.20
2008,04,13,15,33,13.20
2008,04,13,15,34,13.20
2008,04,13,15,35,13.30
2008,04,13,15,36,13.30
2008,04,13,15,37,13.30
2008,04,13,15,38,13.30
2008,04,13,15,39,13.30
2008,04,13,15,40,13.20
2008,04,13,15,41,13.20
2008,04,13,15,42,13.30
2008,04,13,15,43,13.20
2008,04,13,15,44,13.10
2008,04,13,15,45,13.10
2008,04,13,15,46,13.10
2008,04,13,15,47,13.10
2008,04,13,15,48,13.10
2008,04,13,15,49,13.10
2008,04,13,15,50,13.20
2008,04,13,15,51,13.10
2008,04,13,15,52,13.00
2008,04,13,15,53,13.00
2008,04,13,15,54,13.00
2008,04,13,15,55,13.00
2008,04,13,15,56,13.00
2008,04,13,15,57,13.00
2008,04,13,15,58,13.00
2008,04,13,15,59,13.10
2008,04,13,16,00,13.10
2008,04,13,16,01,13.10
2008,04,13,16,02,13.10
2008,04,13,16,03,13.00
2008,04,13,16,04,12.90
2008,04,13,16,05,12.90
2008,04,13,16,06,12.80
2008,04,13,16,07,12.80
2008,04,13,16,08,12.80
2008,04,13,16,09,12.70
2008,04,13,16,10,12.70
2008,04,13,16,11,12.80
2008,04,13,16,12,12.80
2008,04,13,16,13,13.00
2008,04,13,16,14,13.10
2008,04,13,16,15,13.20
2008,04,13,16,16,13.40
2008,04,13,16,17,13.50
2008,04,13,16,18,13.60
2008,04,13,16,19,13.70
2008,04,13,16,20,13.70
2008,04,13,16,21,13.80
2008,04,13,16,22,13.80
2008,04,13,16,23,13.80
2008,04,13,16,24,13.90
2008,04,13,16,25,13.90
2008,04,13,16,26,13.80
2008,04,13,16,27,13.80
2008,04,13,16,28,13.80
2008,04,13,16,29,13.70
2008,04,13,16,30,13.70
2008,04,13,16,31,13.70
2008,04,13,16,32,13.70
2008,04,13,16,33,13.70
2008,04,13,16,34,13.70
2008,04,13,16,35,13.70
2008,04,13,16,36,13.80
2008,04,13,16,37,13.80
2008,04,13,16,38,13.80
2008,04,13,16,39,13.90
2008,04,13,16,40,13.90
2008,04,13,16,41,13.90
2008,04,13,16,42,13.90
2008,04,13,16,43,13.90
2008,04,13,16,44,13.80
2008,04,13,16,45,13.80
2008,04,13,16,46,13.70
2008,04,13,16,47,13.70
2008,04,13,16,48,13.70
2008,04,13,16,49,13.70
2008,04,13,16,50,13.70
2008,04,13,16,51,13.80
2008,04,13,16,52,13.80
2008,04,13,16,53,13.70
2008,04,13,16,54,13.70
2008,04,13,16,55,13.70
2008,04,13,16,56,13.70
2008,04,13,16,57,13.70
2008,04,13,16,58,13.70
2008,04,13,16,59,13.70
2008,04,13,17,00,13.70
2008,04,13,17,01,13.80
2008,04,13,17,02,13.90
2008,04,13,17,03,13.90
2008,04,13,17,04,13.90
2008,04,13,17,05,13.90
2008,04,13,17,06,13.90
2008,04,13,17,07,13.90
2008,04,13,17,08,13.90
2008,04,13,17,09,14.00
2008,04,13,17,10,14.00
2008,04,13,17,11,14.10
2008,04,13,17,12,14.10
2008,04,13,17,13,14.10
2008,04,13,17,14,14.20
2008,04,13,17,15,14.20
2008,04,13,17,16,14.20
2008,04,13,17,17,14.30
2008,04,13,17,18,14.30
2008,04,13,17,19,14.30
2008,04,13,17,20,14.30
2008,04,13,17,21,14.20
2008,04,13,17,22,14.20
2008,04,13,17,23,14.20
2008,04,13,17,24,14.20
2008,04,13,17,25,14.10
2008,04,13,17,26,14.00
2008,04,13,17,27,13.90
2008,04,13,17,28,13.80
2008,04,13,17,29,13.80